Change the Weather History Date:

Tuesday, April 9, 2013

  Actual Average Record
Temperature  
Mean Temperature 49 °F 49 °F  
Max Temperature 54 °F 57 °F 73 °F (1959)
Min Temperature 43 °F 41 °F 34 °F (1982)
Degree Days  
Heating Degree Days 16 16  
Month to date heating degree days 122 145  
Since 1 July heating degree days 3786 3973  
Cooling Degree Days 0 0  
Month to date cooling degree days 0 0  
Year to date cooling degree days 0 0  
Moisture  
Dew Point 40 °F    
Average Humidity 71    
Maximum Humidity 83    
Minimum Humidity 59    
Precipitation  
Precipitation T in 0.10 in 0.96 in (1971)
Month to date precipitation 3.13 0.94  
Year to date precipitation 11.61 13.73  
Snow  
Snow 0.00 in - T in (1991)
Month to date snowfall 0.0  
Since 1 July snowfall 0.6  
Snow Depth 0.00 in    
Sea Level Pressure  
Sea Level Pressure 30.32 in    
Wind  
Wind Speed 5 mph (South)    
Max Wind Speed 9 mph    
Max Gust Speed 12 mph    
Visibility 10 miles    
Events Rain    
T = Trace of Precipitation, MM = Missing Value Source: NWS Daily Summary

Daily Weather History Graph

Daily Weather History Graph

Search for Another Location

Airport or City:

Trip Planner

Search our weather history database for the weather conditions in past years. The results will help you decide how hot, cold, wet, or windy it might be!

Date:

Astronomy

Apr. 09, 2013 Rise Set
Actual Time 6:31 AM PDT 7:50 PM PDT
Civil Twilight 5:59 AM PDT 8:22 PM PDT
Nautical Twilight 5:21 AM PDT 9:01 PM PDT
Astronomical Twilight 4:40 AM PDT 9:42 PM PDT
Moon 5:58 AM PDT (4/9) 7:32 PM PDT (4/9)
Length of Visible Light 14h 22m
Length of Day
13h 19m
Waning Crescent, 0% of the Moon is Illuminated
Apr 9
Waning Crescent
Apr 10
New
Apr 18
First Quarter
Apr 25
Full
May 2
Last Quarter

Hourly Weather History & Observations

Time (PDT) Temp. Windchill Dew Point Humidity Pressure Visibility Wind Dir Wind Speed Gust Speed Precip Events Conditions
12:53 AM 46.0 °F 41.9 °F 39.9 °F 79% 30.32 in 10.0 mi SW 8.1 mph - N/A   Partly Cloudy
1:53 AM 44.1 °F 40.8 °F 39.0 °F 82% 30.34 in 10.0 mi South 5.8 mph - N/A   Scattered Clouds
2:30 AM 44.6 °F 43.1 °F 41.0 °F 87% 30.31 in 10.0 mi South 3.5 mph - N/A   Overcast
2:53 AM 44.1 °F 41.5 °F 39.9 °F 85% 30.32 in 10.0 mi South 4.6 mph - N/A   Mostly Cloudy
3:09 AM 44.6 °F 42.2 °F 39.2 °F 81% 30.30 in 10.0 mi South 4.6 mph - N/A   Scattered Clouds
3:53 AM 44.1 °F 40.1 °F 39.9 °F 85% 30.34 in 10.0 mi SSE 6.9 mph - N/A   Scattered Clouds
4:53 AM 44.1 °F 40.8 °F 39.9 °F 85% 30.35 in 10.0 mi SE 5.8 mph - N/A   Scattered Clouds
5:53 AM 44.1 °F 40.1 °F 39.0 °F 82% 30.35 in 10.0 mi SSE 6.9 mph - N/A   Scattered Clouds
6:53 AM 44.1 °F 41.5 °F 39.0 °F 82% 30.35 in 10.0 mi SSE 4.6 mph - N/A   Overcast
7:53 AM 45.0 °F 43.5 °F 39.9 °F 82% 30.36 in 10.0 mi South 3.5 mph - N/A   Overcast
8:53 AM 46.9 °F - 39.0 °F 74% 30.36 in 10.0 mi South 5.8 mph - N/A   Overcast
9:53 AM 48.0 °F - 39.0 °F 71% 30.37 in 10.0 mi South 4.6 mph - N/A   Overcast
10:53 AM 48.9 °F - 39.0 °F 69% 30.38 in 10.0 mi SW 6.9 mph - N/A   Overcast
11:53 AM 50.0 °F - 39.9 °F 68% 30.38 in 10.0 mi Variable 3.5 mph - N/A   Overcast
12:53 PM 51.1 °F - 39.0 °F 63% 30.37 in 10.0 mi South 4.6 mph - N/A   Overcast
1:53 PM 52.0 °F - 39.0 °F 61% 30.35 in 10.0 mi SE 6.9 mph - 0.00 in Rain Light Rain
2:53 PM 52.0 °F - 39.0 °F 61% 30.35 in 10.0 mi SW 5.8 mph - 0.00 in   Overcast
3:53 PM 53.1 °F - 39.9 °F 61% 30.33 in 10.0 mi SSW 6.9 mph - N/A   Overcast
4:53 PM 53.1 °F - 39.9 °F 61% 30.32 in 10.0 mi SW 3.5 mph - N/A   Overcast
5:53 PM 54.0 °F - 39.9 °F 59% 30.31 in 10.0 mi SSW 5.8 mph - N/A   Overcast
6:53 PM 53.1 °F - 39.0 °F 59% 30.29 in 10.0 mi South 5.8 mph - N/A   Mostly Cloudy
7:53 PM 53.1 °F - 39.9 °F 61% 30.27 in 10.0 mi South 4.6 mph - N/A   Overcast
8:53 PM 53.1 °F - 39.9 °F 61% 30.27 in 10.0 mi SSE 4.6 mph - N/A   Overcast
9:53 PM 53.1 °F - 41.0 °F 64% 30.26 in 10.0 mi SSW 4.6 mph - N/A   Overcast
10:53 PM 53.1 °F - 41.0 °F 64% 30.25 in 10.0 mi South 4.6 mph - N/A   Overcast
11:53 PM 52.0 °F - 42.1 °F 69% 30.22 in 10.0 mi SSW 6.9 mph - N/A   Overcast